{"data":{"norad_id":58172,"epoch":"2026-05-25T04:21:06.223392Z","epoch_age_seconds":52696,"freshness":"FRESH","line1":"1 58172U 23165C   26145.18132203 -.00000056  00000+0  14105-4 0  9994","line2":"2 58172  67.1514 343.3452 0016101 327.7901  32.2199 13.97332385131141","mean_motion":13.97332385,"eccentricity":0.0016101,"inclination_deg":67.1514,"raan_deg":343.3452,"arg_perigee_deg":327.7901,"mean_anomaly_deg":32.2199,"bstar":1.4105e-5,"rev_number":13114,"period_min":103.0535050542,"perigee_km":891.32388204619,"apogee_km":914.77075178352,"semimajor_km":7281.1843169149,"source":"CELESTRAK","updated_at":"2026-05-25T13:38:00.554616Z"}}